Tracking 19634 objects as of 21-May-2019
HD Live streaming from Space Station
objects crossing your sky now

CHINASAT 20

Track CHINASAT 20 now!
CHINASAT 20 is classified as:


NORAD ID: 28082
Int'l Code: 2003-052A
Perigee: 36,105.1 km
Apogee: 36,140.3 km
Inclination: 4.9 °
Period: 1,452.9 minutes
Semi major axis: 42493 km
RCS: 12.5893 m2 (large)
Launch date: November 14, 2003
Source: People's Republic of China (PRC)
Launch site: Xichang Space Center, China (XSC)

Dedicated military communications satellite.
aabbcc
Your satellite tracking list
Your tracking list is empty




NASA's NSSDC Master Catalog

Two Line Element Set (TLE):
1 28082U 03052A   19140.46281052 +.00000059 +00000-0 +00000-0 0  9997
2 28082 004.9024 068.1229 0004138 356.0121 027.0511 00.99109582056777
Source of the keplerian elements: AFSPC